Location: Leedale
(52.5833°N, 114.4833°W)
Time: 05:24:53
(UTC+00:00)

BlueWalker 3 - Pass Details

Date: 13 August 2024
Orbit: 476 x 487 km, 53.2° (Epoch: 09 September)

Event Time Altitude Azimuth Distance (km) Brightness Sun altitude
Exits shadow 08:38:30 21° 104° (ESE) 1,146 3.7 -21.9°
Drops below altitude 10° 08:40:14 10° 84° (E) 1,690 4.8 -21.8°
Sets 08:42:36 0° 73° (ENE) 2,576 6.0 -21.7°
